QPF
0.10 0.10 0.08 0.06 0.04 0.06 0.06 0.08 0.05 0.04 0.03 0.02 0.03 0.02 0.02 0.02 0.03 0.03 0.03 0.02 0.01 0.01 0.02 0.02 0.02 0.01 0.02 0.01 0.01 0.01 0.01 0.01 0.01 0.01 0.01 0.01 0.02 0.01 0.01 0.01 0.01 0.00 0.00
0.09 0.08 0.07 0.07 0.06 0.05 0.05 0.04 0.03 0.04 0.04 0.03 0.02 0.02 0.03 0.02 0.03 0.03 0.04 0.06 0.03 0.01 0.02 0.03 0.03 0.02 0.02 0.02 0.01 0.01 0.01 0.01 0.01 0.01 0.01 0.01 0.01 0.01 0.01 0.01 0.01 0.01 0.01
0.09 0.09 0.10 0.09 0.08 0.07 0.05 0.05 0.05 0.05 0.05 0.05 0.04 0.02 0.04 0.04 0.03 0.04 0.05 0.06 0.03 0.02 0.02 0.03 0.04 0.05 0.04 0.02 0.01 0.01 0.01 0.01 0.01 0.01 0.01 0.01 0.01 0.01 0.01 0.01 0.01 0.01 0.02
0.07 0.10 0.12 0.12 0.10 0.08 0.07 0.08 0.08 0.08 0.08 0.06 0.05 0.03 0.02 0.04 0.04 0.03 0.03 0.05 0.07 0.05 0.02 0.01 0.04 0.08 0.04 0.02 0.03 0.03 0.02 0.02 0.01 0.02 0.01 0.01 0.01 0.01 0.01 0.01 0.02 0.02 0.01
0.05 0.08 0.09 0.09 0.09 0.09 0.09 0.10 0.12 0.11 0.11 0.08 0.03 0.02 0.02 0.04 0.06 0.04 0.04 0.05 0.06 0.06 0.05 0.03 0.04 0.05 0.02 0.02 0.03 0.03 0.04 0.03 0.03 0.02 0.02 0.01 0.01 0.01 0.01 0.01 0.01 0.01 0.01
0.04 0.06 0.06 0.06 0.08 0.09 0.10 0.10 0.13 0.13 0.12 0.10 0.05 0.06 0.07 0.05 0.05 0.06 0.06 0.06 0.07 0.05 0.07 0.09 0.08 0.05 0.02 0.02 0.03 0.04 0.05 0.05 0.05 0.05 0.04 0.04 0.03 0.03 0.02 0.01 0.01 0.01 0.01
0.06 0.06 0.06 0.08 0.08 0.10 0.09 0.09 0.11 0.12 0.12 0.12 0.12 0.12 0.09 0.06 0.06 0.07 0.08 0.08 0.08 0.07 0.07 0.13 0.15 0.12 0.08 0.04 0.04 0.05 0.06 0.06 0.06 0.06 0.08 0.07 0.07 0.05 0.03 0.02 0.02 0.02 0.02
0.07 0.06 0.07 0.07 0.07 0.09 0.09 0.10 0.12 0.11 0.10 0.11 0.13 0.16 0.13 0.10 0.08 0.05 0.05 0.05 0.05 0.07 0.09 0.10 0.11 0.12 0.11 0.10 0.07 0.04 0.04 0.03 0.05 0.07 0.07 0.05 0.05 0.05 0.04 0.04 0.03 0.04 0.05
0.05 0.06 0.07 0.06 0.06 0.06 0.09 0.11 0.10 0.11 0.11 0.11 0.12 0.16 0.16 0.16 0.13 0.07 0.05 0.05 0.05 0.06 0.07 0.07 0.08 0.10 0.10 0.14 0.12 0.09 0.06 0.04 0.05 0.08 0.09 0.10 0.08 0.06 0.06 0.05 0.04 0.04 0.06
0.02 0.02 0.03 0.04 0.06 0.07 0.09 0.08 0.10 0.11 0.11 0.11 0.12 0.12 0.12 0.12 0.12 0.10 0.07 0.05 0.05 0.05 0.06 0.07 0.07 0.08 0.08 0.10 0.10 0.09 0.08 0.07 0.08 0.09 0.10 0.11 0.11 0.11 0.10 0.08 0.07 0.06 0.06
0.03 0.01 0.02 0.04 0.06 0.06 0.06 0.06 0.08 0.08 0.09 0.10 0.10 0.10 0.10 0.10 0.11 0.11 0.10 0.08 0.06 0.04 0.04 0.05 0.06 0.05 0.05 0.08 0.10 0.08 0.08 0.07 0.05 0.04 0.05 0.08 0.08 0.08 0.08 0.07 0.06 0.06 0.07
0.03 0.02 0.02 0.04 0.06 0.05 0.05 0.04 0.05 0.05 0.07 0.09 0.09 0.08 0.09 0.09 0.10 0.10 0.09 0.09 0.08 0.04 0.03 0.04 0.04 0.04 0.04 0.05 0.08 0.07 0.07 0.05 0.03 0.03 0.03 0.04 0.06 0.06 0.06 0.06 0.07 0.07 0.07
0.03 0.04 0.04 0.05 0.05 0.04 0.04 0.06 0.05 0.05 0.06 0.07 0.07 0.07 0.07 0.06 0.07 0.10 0.10 0.09 0.08 0.06 0.06 0.04 0.03 0.02 0.02 0.03 0.05 0.04 0.04 0.03 0.03 0.02 0.03 0.04 0.03 0.04 0.04 0.05 0.07 0.08 0.09
0.03 0.03 0.05 0.05 0.04 0.05 0.05 0.07 0.05 0.04 0.05 0.05 0.05 0.07 0.06 0.06 0.08 0.10 0.10 0.11 0.11 0.11 0.09 0.05 0.02 0.01 0.02 0.04 0.05 0.05 0.04 0.03 0.03 0.02 0.02 0.02 0.03 0.03 0.02 0.03 0.04 0.06 0.07
0.03 0.02 0.05 0.06 0.06 0.07 0.08 0.08 0.06 0.05 0.06 0.05 0.05 0.07 0.07 0.06 0.06 0.07 0.09 0.10 0.10 0.10 0.10 0.08 0.05 0.02 0.02 0.04 0.06 0.06 0.05 0.06 0.05 0.03 0.01 0.01 0.01 0.01 0.02 0.02 0.02 0.03 0.04
0.04 0.04 0.06 0.06 0.08 0.08 0.08 0.08 0.08 0.07 0.06 0.05 0.05 0.06 0.06 0.05 0.05 0.06 0.08 0.09 0.10 0.10 0.11 0.09 0.07 0.04 0.04 0.03 0.05 0.04 0.04 0.04 0.03 0.03 0.02 0.02 0.02 0.02 0.03 0.03 0.03 0.03 0.03
0.05 0.05 0.06 0.05 0.05 0.05 0.05 0.06 0.05 0.05 0.06 0.05 0.04 0.04 0.05 0.06 0.05 0.05 0.06 0.08 0.08 0.08 0.09 0.10 0.09 0.07 0.06 0.05 0.06 0.05 0.05 0.05 0.04 0.03 0.03 0.02 0.02 0.02 0.02 0.02 0.02 0.03 0.04
0.04 0.04 0.05 0.05 0.05 0.05 0.04 0.03 0.03 0.04 0.06 0.04 0.04 0.05 0.03 0.04 0.05 0.05 0.05 0.05 0.06 0.07 0.08 0.08 0.08 0.07 0.06 0.06 0.06 0.06 0.04 0.04 0.04 0.04 0.02 0.02 0.02 0.02 0.02 0.02 0.02 0.02 0.03
0.04 0.04 0.04 0.05 0.06 0.05 0.04 0.03 0.03 0.03 0.04 0.05 0.05 0.05 0.04 0.04 0.04 0.04 0.04 0.05 0.05 0.06 0.08 0.08 0.08 0.06 0.05 0.05 0.06 0.05 0.04 0.05 0.04 0.03 0.03 0.02 0.02 0.02 0.02 0.02 0.02 0.02 0.03
0.04 0.05 0.06 0.06 0.06 0.05 0.04 0.03 0.03 0.03 0.03 0.03 0.04 0.04 0.04 0.04 0.03 0.04 0.04 0.03 0.04 0.05 0.07 0.08 0.08 0.07 0.06 0.05 0.05 0.04 0.04 0.04 0.04 0.03 0.03 0.03 0.03 0.03 0.04 0.03 0.02 0.02 0.02
0.03 0.05 0.05 0.05 0.05 0.04 0.03 0.04 0.03 0.03 0.03 0.03 0.03 0.03 0.03 0.03 0.03 0.03 0.02 0.03 0.04 0.04 0.05 0.07 0.07 0.07 0.06 0.05 0.04 0.04 0.04 0.05 0.06 0.05 0.05 0.06 0.06 0.06 0.06 0.04 0.03 0.02 0.02
0.02 0.03 0.03 0.03 0.03 0.02 0.02 0.02 0.02 0.03 0.03 0.04 0.04 0.03 0.02 0.03 0.03 0.03 0.02 0.02 0.02 0.03 0.04 0.05 0.06 0.06 0.06 0.05 0.05 0.05 0.06 0.06 0.08 0.09 0.09 0.09 0.08 0.07 0.05 0.04 0.04 0.05 0.05
0.03 0.02 0.02 0.03 0.02 0.02 0.01 0.01 0.01 0.02 0.03 0.03 0.04 0.04 0.03 0.03 0.04 0.04 0.04 0.03 0.02 0.02 0.03 0.04 0.04 0.04 0.05 0.05 0.05 0.05 0.05 0.05 0.06 0.09 0.10 0.10 0.07 0.06 0.05 0.05 0.06 0.06 0.06
0.04 0.02 0.02 0.02 0.03 0.02 0.01 0.02 0.02 0.02 0.02 0.02 0.03 0.04 0.05 0.06 0.06 0.06 0.04 0.02 0.02 0.02 0.03 0.03 0.03 0.04 0.05 0.06 0.06 0.06 0.07 0.07 0.08 0.09 0.10 0.09 0.07 0.07 0.06 0.06 0.07 0.07 0.06
0.04 0.03 0.03 0.03 0.04 0.04 0.03 0.03 0.03 0.03 0.03 0.03 0.04 0.04 0.05 0.04 0.04 0.04 0.03 0.03 0.03 0.04 0.04 0.05 0.05 0.07 0.08 0.09 0.07 0.06 0.06 0.06 0.07 0.08 0.08 0.07 0.08 0.09 0.10 0.10 0.09 0.07 0.05
0.05 0.05 0.05 0.05 0.04 0.04 0.04 0.03 0.03 0.03 0.03 0.02 0.02 0.02 0.02 0.02 0.02 0.03 0.02 0.02 0.03 0.03 0.03 0.04 0.04 0.04 0.05 0.06 0.04 0.04 0.04 0.05 0.05 0.06 0.07 0.08 0.08 0.08 0.07 0.07 0.05 0.04 0.03
MSLP
1016.92 1017.00 1016.97 1016.90 1016.82 1016.78 1016.80 1016.87 1016.97 1017.05 1017.08 1017.04 1016.93 1016.76 1016.59 1016.47 1016.44 1016.54 1016.77 1017.11 1017.51 1017.93 1018.31 1018.62 1018.85 1019.00 1019.10 1019.17 1019.25 1019.35 1019.48 1019.64 1019.81 1019.99 1020.16 1020.32 1020.47 1020.61 1020.75 1020.89 1021.04 1021.19 1021.34
1016.72 1016.80 1016.77 1016.70 1016.63 1016.58 1016.60 1016.66 1016.77 1016.87 1016.93 1016.93 1016.85 1016.72 1016.57 1016.43 1016.36 1016.39 1016.53 1016.78 1017.09 1017.44 1017.79 1018.09 1018.34 1018.53 1018.68 1018.79 1018.90 1019.02 1019.16 1019.32 1019.49 1019.67 1019.85 1020.03 1020.20 1020.37 1020.52 1020.67 1020.82 1020.96 1021.09
1016.45 1016.53 1016.54 1016.49 1016.45 1016.43 1016.46 1016.55 1016.66 1016.78 1016.87 1016.90 1016.85 1016.74 1016.58 1016.42 1016.29 1016.23 1016.26 1016.39 1016.59 1016.84 1017.13 1017.41 1017.66 1017.88 1018.08 1018.24 1018.39 1018.54 1018.70 1018.86 1019.04 1019.22 1019.41 1019.60 1019.78 1019.95 1020.12 1020.28 1020.43 1020.57 1020.70
1016.12 1016.22 1016.26 1016.27 1016.28 1016.31 1016.39 1016.50 1016.65 1016.79 1016.89 1016.94 1016.91 1016.81 1016.64 1016.44 1016.24 1016.08 1015.98 1015.97 1016.04 1016.18 1016.38 1016.61 1016.85 1017.09 1017.33 1017.54 1017.74 1017.93 1018.11 1018.28 1018.46 1018.64 1018.82 1019.00 1019.18 1019.36 1019.53 1019.69 1019.84 1019.99 1020.13
1015.75 1015.87 1015.96 1016.04 1016.12 1016.22 1016.35 1016.51 1016.68 1016.84 1016.97 1017.03 1017.01 1016.91 1016.72 1016.48 1016.22 1015.96 1015.74 1015.59 1015.52 1015.53 1015.63 1015.79 1016.00 1016.24 1016.50 1016.75 1017.00 1017.22 1017.43 1017.62 1017.80 1017.96 1018.12 1018.28 1018.44 1018.60 1018.76 1018.92 1019.08 1019.23 1019.39
1015.36 1015.50 1015.64 1015.78 1015.94 1016.12 1016.31 1016.51 1016.72 1016.90 1017.04 1017.12 1017.11 1017.01 1016.82 1016.56 1016.24 1015.90 1015.58 1015.30 1015.10 1014.98 1014.97 1015.05 1015.21 1015.44 1015.70 1015.99 1016.27 1016.53 1016.76 1016.96 1017.13 1017.28 1017.41 1017.53 1017.66 1017.78 1017.91 1018.05 1018.20 1018.36 1018.53
1014.99 1015.13 1015.31 1015.51 1015.74 1015.98 1016.23 1016.48 1016.71 1016.91 1017.07 1017.17 1017.18 1017.10 1016.92 1016.66 1016.32 1015.93 1015.54 1015.16 1014.84 1014.61 1014.49 1014.48 1014.58 1014.78 1015.04 1015.34 1015.65 1015.94 1016.19 1016.40 1016.56 1016.69 1016.78 1016.86 1016.93 1017.01 1017.09 1017.20 1017.32 1017.46 1017.62
1014.67 1014.80 1014.99 1015.22 1015.49 1015.78 1016.07 1016.35 1016.61 1016.83 1017.01 1017.13 1017.17 1017.13 1017.00 1016.77 1016.45 1016.05 1015.62 1015.19 1014.79 1014.47 1014.25 1014.16 1014.20 1014.35 1014.59 1014.89 1015.21 1015.52 1015.80 1016.01 1016.17 1016.28 1016.33 1016.36 1016.38 1016.39 1016.42 1016.46 1016.53 1016.64 1016.77
1014.40 1014.49 1014.67 1014.91 1015.20 1015.50 1015.81 1016.11 1016.38 1016.61 1016.81 1016.96 1017.05 1017.08 1017.01 1016.85 1016.59 1016.24 1015.82 1015.37 1014.94 1014.55 1014.26 1014.10 1014.07 1014.17 1014.38 1014.67 1014.99 1015.31 1015.60 1015.83 1015.99 1016.08 1016.11 1016.09 1016.05 1016.00 1015.96 1015.94 1015.94 1015.98 1016.05
1014.16 1014.21 1014.35 1014.56 1014.83 1015.13 1015.43 1015.72 1015.99 1016.24 1016.46 1016.65 1016.80 1016.90 1016.93 1016.87 1016.70 1016.43 1016.07 1015.65 1015.21 1014.80 1014.46 1014.24 1014.14 1014.19 1014.36 1014.62 1014.94 1015.26 1015.56 1015.80 1015.96 1016.05 1016.07 1016.02 1015.94 1015.84 1015.74 1015.64 1015.57 1015.53 1015.52
1013.92 1013.91 1013.99 1014.15 1014.38 1014.64 1014.92 1015.19 1015.46 1015.71 1015.96 1016.19 1016.41 1016.60 1016.73 1016.79 1016.74 1016.57 1016.30 1015.94 1015.53 1015.12 1014.76 1014.49 1014.34 1014.33 1014.45 1014.67 1014.96 1015.28 1015.57 1015.82 1016.00 1016.09 1016.11 1016.06 1015.97 1015.84 1015.69 1015.54 1015.39 1015.27 1015.16
1013.63 1013.55 1013.57 1013.67 1013.84 1014.06 1014.30 1014.55 1014.81 1015.06 1015.33 1015.62 1015.91 1016.18 1016.42 1016.59 1016.66 1016.61 1016.44 1016.16 1015.80 1015.41 1015.05 1014.75 1014.56 1014.49 1014.55 1014.72 1014.97 1015.25 1015.54 1015.78 1015.97 1016.09 1016.12 1016.09 1016.00 1015.87 1015.71 1015.53 1015.33 1015.14 1014.95
1013.27 1013.13 1013.08 1013.12 1013.24 1013.41 1013.61 1013.84 1014.09 1014.36 1014.65 1014.98 1015.33 1015.68 1016.01 1016.28 1016.46 1016.52 1016.44 1016.25 1015.96 1015.61 1015.25 1014.94 1014.71 1014.59 1014.59 1014.69 1014.88 1015.11 1015.37 1015.60 1015.79 1015.92 1015.99 1016.00 1015.94 1015.84 1015.69 1015.51 1015.30 1015.07 1014.82
1012.84 1012.65 1012.55 1012.54 1012.61 1012.74 1012.92 1013.14 1013.38 1013.67 1013.99 1014.35 1014.74 1015.15 1015.55 1015.89 1016.16 1016.30 1016.32 1016.20 1015.97 1015.67 1015.34 1015.03 1014.77 1014.60 1014.53 1014.56 1014.67 1014.84 1015.03 1015.24 1015.41 1015.56 1015.66 1015.71 1015.71 1015.66 1015.56 1015.41 1015.22 1014.98 1014.70
1012.37 1012.16 1012.02 1011.98 1012.02 1012.13 1012.30 1012.52 1012.78 1013.09 1013.43 1013.81 1014.24 1014.67 1015.10 1015.49 1015.80 1016.00 1016.08 1016.03 1015.86 1015.61 1015.32 1015.01 1014.74 1014.53 1014.40 1014.35 1014.37 1014.46 1014.58 1014.73 1014.88 1015.02 1015.14 1015.23 1015.29 1015.31 1015.27 1015.18 1015.04 1014.83 1014.57
1011.94 1011.72 1011.57 1011.51 1011.54 1011.66 1011.84 1012.07 1012.36 1012.68 1013.05 1013.44 1013.87 1014.30 1014.73 1015.12 1015.44 1015.66 1015.77 1015.77 1015.66 1015.47 1015.22 1014.94 1014.67 1014.44 1014.25 1014.13 1014.07 1014.05 1014.09 1014.16 1014.26 1014.38 1014.50 1014.63 1014.74 1014.82 1014.86 1014.84 1014.76 1014.61 1014.38
1011.61 1011.40 1011.26 1011.20 1011.24 1011.37 1011.58 1011.85 1012.16 1012.50 1012.88 1013.27 1013.68 1014.08 1014.47 1014.82 1015.11 1015.33 1015.45 1015.48 1015.42 1015.28 1015.08 1014.85 1014.61 1014.37 1014.16 1013.97 1013.83 1013.73 1013.67 1013.66 1013.69 1013.76 1013.86 1014.00 1014.14 1014.27 1014.37 1014.43 1014.42 1014.33 1014.16
1011.45 1011.25 1011.12 1011.08 1011.14 1011.29 1011.53 1011.83 1012.17 1012.53 1012.90 1013.28 1013.64 1013.99 1014.32 1014.60 1014.84 1015.02 1015.13 1015.17 1015.15 1015.07 1014.94 1014.77 1014.57 1014.35 1014.13 1013.92 1013.71 1013.53 1013.39 1013.29 1013.24 1013.26 1013.33 1013.44 1013.59 1013.75 1013.90 1014.00 1014.05 1014.02 1013.91
1011.43 1011.25 1011.13 1011.11 1011.20 1011.38 1011.64 1011.97 1012.32 1012.69 1013.05 1013.39 1013.70 1013.98 1014.22 1014.43 1014.59 1014.72 1014.81 1014.85 1014.86 1014.84 1014.77 1014.67 1014.54 1014.37 1014.17 1013.95 1013.71 1013.48 1013.27 1013.09 1012.97 1012.92 1012.94 1013.02 1013.16 1013.32 1013.48 1013.61 1013.69 1013.71 1013.65
1011.53 1011.36 1011.25 1011.25 1011.35 1011.55 1011.83 1012.17 1012.53 1012.89 1013.23 1013.52 1013.77 1013.97 1014.13 1014.24 1014.33 1014.40 1014.45 1014.50 1014.53 1014.56 1014.56 1014.53 1014.47 1014.36 1014.21 1014.00 1013.76 1013.51 1013.25 1013.02 1012.85 1012.74 1012.70 1012.74 1012.85 1012.99 1013.14 1013.28 1013.37 1013.41 1013.38
1011.65 1011.49 1011.40 1011.40 1011.50 1011.71 1011.99 1012.33 1012.68 1013.02 1013.33 1013.58 1013.77 1013.89 1013.97 1014.00 1014.02 1014.03 1014.04 1014.08 1014.13 1014.19 1014.25 1014.30 1014.30 1014.26 1014.16 1014.00 1013.78 1013.53 1013.26 1013.01 1012.79 1012.64 1012.57 1012.57 1012.63 1012.74 1012.87 1012.99 1013.08 1013.13 1013.11
1011.73 1011.57 1011.48 1011.48 1011.58 1011.77 1012.05 1012.37 1012.70 1013.01 1013.28 1013.49 1013.62 1013.69 1013.70 1013.67 1013.63 1013.59 1013.57 1013.59 1013.65 1013.73 1013.83 1013.93 1013.99 1014.01 1013.96 1013.85 1013.67 1013.44 1013.19 1012.94 1012.72 1012.55 1012.45 1012.42 1012.45 1012.53 1012.63 1012.73 1012.80 1012.84 1012.84
1011.70 1011.55 1011.46 1011.45 1011.54 1011.72 1011.97 1012.26 1012.57 1012.85 1013.08 1013.25 1013.34 1013.37 1013.34 1013.27 1013.18 1013.11 1013.07 1013.07 1013.11 1013.20 1013.31 1013.43 1013.53 1013.58 1013.58 1013.51 1013.38 1013.20 1012.98 1012.76 1012.56 1012.40 1012.30 1012.25 1012.26 1012.31 1012.39 1012.47 1012.53 1012.56 1012.56
1011.58 1011.43 1011.35 1011.34 1011.42 1011.58 1011.79 1012.05 1012.31 1012.56 1012.76 1012.90 1012.97 1012.98 1012.93 1012.84 1012.74 1012.65 1012.58 1012.56 1012.59 1012.65 1012.75 1012.86 1012.96 1013.03 1013.04 1013.01 1012.91 1012.78 1012.61 1012.44 1012.28 1012.15 1012.07 1012.03 1012.04 1012.08 1012.14 1012.20 1012.26 1012.29 1012.30
1011.42 1011.30 1011.23 1011.23 1011.30 1011.43 1011.61 1011.82 1012.04 1012.25 1012.43 1012.55 1012.61 1012.61 1012.57 1012.48 1012.38 1012.28 1012.20 1012.15 1012.14 1012.17 1012.23 1012.30 1012.37 1012.42 1012.43 1012.41 1012.34 1012.25 1012.13 1012.01 1011.90 1011.82 1011.77 1011.76 1011.78 1011.83 1011.88 1011.94 1012.00 1012.04 1012.07
1011.33 1011.25 1011.21 1011.21 1011.27 1011.38 1011.52 1011.69 1011.87 1012.04 1012.18 1012.28 1012.34 1012.35 1012.32 1012.25 1012.16 1012.06 1011.97 1011.89 1011.84 1011.82 1011.82 1011.83 1011.85 1011.85 1011.85 1011.81 1011.76 1011.70 1011.62 1011.56 1011.50 1011.47 1011.47 1011.49 1011.53 1011.59 1011.65 1011.71 1011.77 1011.82 1011.87
Thickness
5759 5758 5758 5757 5758 5757 5756 5756 5756 5757 5757 5757 5758 5758 5758 5758 5757 5754 5750 5748 5747 5746 5744 5742 5740 5738 5736 5734 5733 5731 5730 5728 5727 5725 5724 5723 5721 5720 5718 5717 5715 5714 5713
5760 5759 5758 5758 5759 5759 5759 5758 5758 5758 5758 5758 5758 5759 5759 5758 5757 5755 5752 5749 5747 5746 5745 5743 5741 5739 5738 5736 5734 5732 5731 5729 5727 5726 5724 5723 5721 5720 5719 5717 5716 5714 5713
5760 5760 5759 5759 5760 5760 5760 5760 5760 5759 5758 5758 5758 5759 5759 5759 5758 5757 5754 5751 5749 5747 5746 5744 5743 5741 5739 5737 5736 5734 5732 5730 5728 5726 5725 5723 5722 5720 5719 5717 5716 5714 5713
5761 5760 5759 5758 5760 5760 5760 5759 5759 5757 5757 5757 5757 5758 5759 5758 5758 5757 5756 5754 5752 5750 5747 5746 5744 5742 5741 5739 5737 5735 5733 5731 5729 5727 5725 5723 5722 5720 5719 5717 5716 5714 5713
5762 5761 5760 5760 5760 5759 5759 5759 5758 5757 5755 5754 5756 5757 5758 5758 5758 5758 5757 5756 5754 5753 5750 5748 5746 5744 5742 5741 5739 5737 5735 5733 5730 5728 5726 5724 5723 5721 5719 5718 5716 5714 5713
5764 5762 5762 5761 5761 5759 5758 5757 5756 5756 5755 5754 5755 5756 5756 5757 5757 5757 5757 5756 5755 5754 5752 5750 5747 5745 5743 5742 5740 5739 5737 5734 5732 5730 5728 5726 5724 5722 5720 5718 5717 5715 5713
5765 5763 5763 5762 5760 5758 5757 5756 5755 5753 5752 5754 5750 5748 5751 5755 5756 5756 5755 5755 5754 5753 5752 5750 5748 5746 5744 5742 5741 5739 5737 5735 5733 5731 5728 5727 5725 5723 5721 5719 5717 5716 5714
5766 5765 5763 5761 5760 5758 5756 5755 5754 5751 5751 5752 5747 5742 5739 5743 5748 5754 5753 5752 5752 5752 5751 5750 5749 5747 5746 5743 5740 5738 5736 5734 5733 5731 5729 5727 5725 5723 5721 5719 5718 5716 5714
5767 5765 5763 5761 5760 5758 5756 5755 5753 5750 5747 5749 5750 5744 5737 5733 5737 5745 5749 5750 5750 5749 5749 5749 5748 5746 5744 5742 5739 5737 5735 5733 5731 5730 5728 5726 5724 5722 5721 5719 5717 5716 5714
5768 5766 5764 5762 5760 5758 5756 5755 5754 5752 5749 5745 5747 5749 5747 5744 5735 5733 5740 5744 5747 5746 5746 5747 5746 5744 5742 5740 5738 5736 5734 5732 5730 5728 5727 5725 5723 5721 5719 5718 5716 5715 5713
5768 5766 5764 5762 5760 5757 5756 5754 5753 5751 5749 5746 5744 5745 5744 5744 5743 5735 5731 5735 5739 5742 5744 5743 5743 5741 5739 5737 5735 5734 5732 5730 5728 5727 5725 5723 5721 5719 5717 5715 5714 5712 5711
5768 5766 5764 5762 5760 5757 5756 5754 5753 5751 5748 5747 5746 5745 5742 5740 5738 5736 5732 5731 5732 5736 5740 5740 5739 5738 5736 5734 5732 5731 5729 5727 5725 5723 5722 5720 5718 5716 5714 5712 5711 5709 5708
5767 5766 5765 5762 5760 5758 5756 5754 5752 5750 5748 5746 5744 5744 5743 5742 5742 5739 5734 5730 5730 5732 5735 5736 5736 5735 5733 5731 5728 5727 5725 5723 5721 5720 5718 5716 5714 5712 5711 5709 5707 5706 5704
5769 5768 5766 5763 5760 5758 5757 5754 5752 5750 5749 5746 5745 5744 5742 5742 5742 5739 5735 5730 5725 5725 5727 5729 5732 5731 5729 5727 5725 5723 5720 5718 5717 5715 5713 5711 5709 5707 5706 5704 5702 5701 5699
5770 5768 5765 5762 5759 5757 5755 5754 5751 5749 5748 5746 5744 5743 5741 5741 5741 5740 5737 5733 5726 5719 5719 5724 5725 5727 5725 5723 5721 5718 5716 5713 5712 5710 5708 5706 5704 5702 5701 5699 5697 5695 5694
5770 5767 5764 5761 5758 5756 5754 5752 5749 5747 5745 5743 5742 5739 5738 5737 5737 5736 5734 5732 5730 5724 5718 5720 5720 5722 5721 5719 5716 5713 5711 5708 5706 5705 5703 5701 5698 5697 5695 5693 5691 5689 5688
5768 5765 5763 5760 5757 5754 5752 5750 5747 5745 5742 5740 5738 5737 5734 5733 5732 5731 5730 5729 5726 5723 5716 5716 5717 5717 5715 5713 5710 5708 5706 5703 5701 5699 5697 5695 5693 5690 5688 5686 5684 5682 5681
5768 5765 5762 5759 5756 5753 5750 5747 5744 5742 5739 5736 5735 5733 5730 5730 5728 5727 5725 5724 5722 5720 5715 5710 5710 5710 5708 5707 5705 5702 5701 5699 5696 5693 5691 5689 5686 5684 5682 5680 5678 5676 5674
5767 5764 5761 5757 5754 5751 5748 5745 5742 5739 5737 5735 5732 5729 5727 5725 5723 5722 5721 5719 5717 5716 5713 5708 5705 5704 5703 5701 5698 5696 5695 5692 5690 5687 5685 5682 5680 5677 5675 5673 5671 5668 5666
5764 5761 5758 5755 5752 5748 5745 5743 5740 5737 5734 5732 5729 5727 5724 5721 5719 5718 5716 5714 5712 5710 5708 5704 5701 5698 5695 5694 5691 5688 5685 5684 5682 5681 5678 5676 5673 5671 5668 5666 5663 5661 5659
5761 5758 5754 5751 5748 5745 5742 5739 5736 5734 5731 5728 5726 5724 5721 5718 5716 5713 5712 5709 5706 5703 5701 5698 5695 5691 5688 5685 5683 5683 5679 5676 5675 5673 5670 5668 5666 5663 5661 5658 5655 5653 5651
5757 5754 5750 5746 5744 5742 5738 5735 5732 5730 5727 5724 5721 5720 5717 5714 5711 5708 5706 5703 5701 5697 5693 5690 5688 5685 5682 5681 5679 5677 5673 5669 5665 5666 5663 5660 5659 5656 5654 5651 5649 5646 5644
5752 5749 5745 5742 5738 5735 5732 5730 5727 5725 5723 5720 5717 5714 5713 5711 5706 5703 5700 5697 5694 5692 5689 5686 5682 5680 5678 5677 5673 5670 5667 5663 5660 5659 5656 5652 5652 5649 5647 5644 5642 5639 5637
5747 5743 5740 5737 5733 5729 5725 5723 5720 5720 5718 5715 5712 5709 5705 5702 5700 5697 5695 5693 5689 5686 5684 5682 5679 5676 5674 5672 5669 5665 5662 5658 5655 5653 5651 5646 5645 5643 5642 5638 5636 5633 5630
5742 5739 5736 5732 5728 5723 5720 5717 5713 5713 5711 5709 5707 5704 5700 5696 5693 5691 5689 5686 5683 5680 5677 5675 5673 5670 5668 5665 5661 5657 5653 5650 5646 5644 5643 5639 5637 5636 5634 5631 5629 5626 5624
5736 5733 5729 5727 5723 5719 5715 5712 5707 5707 5705 5703 5700 5697 5694 5690 5687 5684 5682 5679 5675 5673 5671 5668 5665 5663 5661 5658 5655 5651 5647 5643 5640 5636 5636 5632 5629 5627 5624 5624 5622 5619 5616